Weather History for KFMN - February, 2014

Change the Weather History Date:

Saturday, February 8, 2014

  Actual Average Record
Temperature  
Mean Temperature 38 °F -  
Max Temperature 52 °F 45 °F 63 °F (2015)
Min Temperature 23 °F 20 °F 4 °F (1989)
Degree Days  
Heating Degree Days 28    
Moisture  
Dew Point 25 °F    
Average Humidity 63    
Maximum Humidity 88    
Minimum Humidity 29    
Precipitation  
Precipitation 0.00 in - - ()
Sea Level Pressure  
Sea Level Pressure 30.16 in    
Wind  
Wind Speed 5 mph (ENE)    
Max Wind Speed 9 mph    
Max Gust Speed -    
Visibility 10 miles    
Events      
Averages and records for this station are not official NWS values.
T = Trace of Precipitation, MM = Missing Value Source: NWS Daily Summary

Daily Weather History Graph

Daily Weather History Graph

Search for Another Location

Airport or City:

Trip Planner

Search our weather history database for the weather conditions in past years. The results will help you decide how hot, cold, wet, or windy it might be!

Date:

Astronomy

Feb. 08, 2014 Rise Set
Actual Time 7:08 AM MST 5:46 PM MST
Civil Twilight 6:41 AM MST 6:12 PM MST
Nautical Twilight 6:11 AM MST 6:43 PM MST
Astronomical Twilight 5:40 AM MST 7:13 PM MST
Moon 12:44 PM MST (2/8) 2:21 AM MST (2/8)
Length of Visible Light 11h 31m
Length of Day
10h 37m
Waxing Gibbous, 69% of the Moon is Illuminated
Feb 8
Waxing Gibbous
Feb 14
Full
Feb 22
Last Quarter
Mar 1
New
Mar 8
First Quarter

Hourly Weather History & Observations

Time (MST) Temp. Windchill Dew Point Humidity Pressure Visibility Wind Dir Wind Speed Gust Speed Precip Events Conditions
12:53 AM 26.1 °F - 21.9 °F 84% 30.12 in 10.0 mi Calm Calm - N/A   Clear
1:53 AM 26.1 °F 21.9 °F 21.9 °F 84% 30.12 in 10.0 mi NE 3.5 mph - N/A   Mostly Cloudy
2:53 AM 27.0 °F 18.7 °F 23.0 °F 85% 30.12 in 10.0 mi ENE 8.1 mph - N/A   Mostly Cloudy
3:53 AM 28.0 °F 21.7 °F 24.1 °F 85% 30.11 in 10.0 mi East 5.8 mph - N/A   Overcast
4:53 AM 25.0 °F 16.3 °F 21.9 °F 88% 30.10 in 10.0 mi East 8.1 mph - N/A   Clear
5:53 AM 25.0 °F 20.7 °F 21.9 °F 88% 30.14 in 10.0 mi NE 3.5 mph - N/A   Clear
6:53 AM 25.0 °F 16.3 °F 21.0 °F 85% 30.16 in 10.0 mi East 8.1 mph - N/A   Clear
7:53 AM 27.0 °F 20.5 °F 23.0 °F 85% 30.20 in 10.0 mi NE 5.8 mph - N/A   Clear
8:53 AM 30.9 °F 24.3 °F 25.0 °F 79% 30.22 in 10.0 mi East 6.9 mph - N/A   Partly Cloudy
9:53 AM 34.0 °F 28.0 °F 27.0 °F 75% 30.23 in 10.0 mi ESE 6.9 mph - N/A   Clear
10:53 AM 39.0 °F 36.8 °F 28.0 °F 65% 30.23 in 10.0 mi ENE 3.5 mph - N/A   Clear
11:53 AM 44.1 °F 42.5 °F 27.0 °F 51% 30.21 in 10.0 mi Variable 3.5 mph - N/A   Clear
12:53 PM 46.9 °F - 26.1 °F 44% 30.17 in 10.0 mi NNW 4.6 mph - N/A   Clear
1:53 PM 48.0 °F - 26.1 °F 42% 30.17 in 10.0 mi Variable 3.5 mph - N/A   Clear
2:53 PM 50.0 °F - 26.1 °F 39% 30.13 in 10.0 mi Variable 3.5 mph - N/A   Clear
3:53 PM 51.1 °F - 25.0 °F 36% 30.12 in 10.0 mi West 5.8 mph - N/A   Clear
4:53 PM 48.0 °F - 26.1 °F 42% 30.13 in 10.0 mi NNE 3.5 mph - N/A   Clear
5:53 PM 46.0 °F 44.8 °F 26.1 °F 46% 30.15 in 10.0 mi East 3.5 mph - N/A   Clear
6:53 PM 44.1 °F 41.5 °F 27.0 °F 51% 30.17 in 10.0 mi ENE 4.6 mph - N/A   Clear
7:53 PM 42.1 °F 38.4 °F 28.0 °F 58% 30.17 in 10.0 mi East 5.8 mph - N/A   Partly Cloudy
8:53 PM 42.1 °F 37.7 °F 28.9 °F 60% 30.17 in 10.0 mi ENE 6.9 mph - N/A   Overcast
9:53 PM 41.0 °F 38.0 °F 28.0 °F 60% 30.17 in 10.0 mi East 4.6 mph - N/A   Overcast
10:53 PM 39.9 °F 33.9 °F 28.0 °F 63% 30.16 in 10.0 mi East 9.2 mph - N/A   Mostly Cloudy
11:53 PM 37.0 °F 31.6 °F 28.0 °F 70% 30.14 in 10.0 mi East 6.9 mph - N/A   Scattered Clouds